TITAN 3C TRANSTAGE DEB, 43456

Orbit data source: Space-Track

TITAN 3C TRANSTAGE DEB, 43456 is space debris in GEO originally from a launch on Sun, 09 Feb 1969 UTC launched from the Air Force Eastern Test Range (AFETR). Debris objects in space refer to the collection of defunct objects orbiting the Earth. Examples of debris include non-operational satellites, rocket bodies, and fragments generated from explosions, collisions, or faulty payload assembly.

Loading next visibility...
Identifier
43456, 1969-013P
Orbit
GEO
Country
Flag of USUS
Related business
Manufacturer
Martin Marietta
Mission
Spacecraft
Bus & Motor
Unknown
Mass
Unknown
Launch date (UTC)
1969-02-09 (57 years ago)
Launch vehicle
Unknown
Launch site
Air Force Eastern Test Range (AFETR)
Object type
Payload
Rocket body
Debris
Shape & HBR
Unknown
Radar Cross Section
RCS unknown

Expand to show TLE details & history
Last TLE update: 1 day ago

TLE from 1 day ago
0 TITAN 3C TRANSTAGE DEB
1 43456U 69013P   25257.32542913 -.00000205  00000-0  00000-0 0  9999
2 43456   1.4293  42.1591 0764324  85.8777 283.4434  1.02749704  3895
Epoch: 2025-09-14T07:48Z
TLE epoch observation values (Epoch: 2025-09-14T07:48:37.076Z)
Latitude
Longitude
-67.91638°
Altitude
34,615.817 km
Speed
3.137 km/s
True Right ascension
02h 51m 08s
True Declination
0° 00' 00"
Sunlit
Object was in daylight at epoch
Visualization orbit readout
Latitude
Unknown
Longitude
Unknown
Altitude
Unknown
Speed
Unknown
Apparent Right ascension
Unknown
Apparent Declination
Unknown
Sunlit
N/A
Visualization observer readout
Local Sidereal Time
11:56:05
Azimuth
Unknown
Elevation
Unknown
Doppler factor
Unknown
Orbital elements
Apogee altitude
38,277.849 km
Perigee altitude
31,936.226 km
Semi-major axis
41,485.175 km
Eccentricity
0.07643
Inclination
1.4293°
RAAN
42.1591°
Arg. of periapsis
85.8777°
True anomaly
274.76494°
Mean anomaly
283.4434°
Eccentric anomaly
279.1195°
Mean motion
0.25686 °/min
Orbital period
1,401.52 mins
BSTAR
0
Loading maneuver chart data...
Computing Atmospheric mass density...

Documentation

Showing up to 5 results
|